Weather History for Lakeview AWS, OR

Change the Weather History Date:

Saturday, September 29, 2012

  Actual Average Record
Temperature  
Mean Temperature 58 °F -  
Max Temperature 82 °F 73 °F 87 °F (1992)
Min Temperature 33 °F 40 °F 19 °F (2007)
Degree Days  
Heating Degree Days 8    
Growing Degree Days 8 (Base 50)    
Moisture  
Dew Point 30 °F    
Average Humidity 44    
Maximum Humidity 81    
Minimum Humidity 13    
Precipitation  
Precipitation 0.00 in - - ()
Sea Level Pressure  
Sea Level Pressure 30.22 in    
Wind  
Wind Speed 5 mph (NW)    
Max Wind Speed 13 mph    
Max Gust Speed -    
Visibility 10 miles    
Events      
Averages and records for this station are not official NWS values.
T = Trace of Precipitation, MM = Missing Value Source: NWS Daily Summary

Daily Weather History Graph

Daily Weather History Graph

Search for Another Location

Airport:

Trip Planner

Search our weather history database for the weather conditions in past years. The results will help you decide how hot, cold, wet, or windy it might be!

Date:

Astronomy

Sep. 29, 2012 Rise Set
Actual Time 6:57 AM PDT 6:45 PM PDT
Civil Twilight 6:29 AM PDT 7:13 PM PDT
Nautical Twilight 5:56 AM PDT 7:45 PM PDT
Astronomical Twilight 5:23 AM PDT 8:18 PM PDT
Moon 6:19 PM PDT 6:33 AM PDT
Length of Visible Light 12h 44m
Length of Day
11h 48m
Full, 100% of the Moon is Illuminated
Sep 29
Full
Sep 29
Full
Oct 8
Last Quarter
Oct 15
New
Oct 21
First Quarter

Hourly Weather History & Observations

Time (PDT) Temp. Windchill Dew Point Humidity Pressure Visibility Wind Dir Wind Speed Gust Speed Precip Events Conditions
12:15 AM 46.4 °F 43.5 °F 33.8 °F 62% 30.15 in 10.0 mi WNW 5.8 mph - N/A   Clear
12:35 AM 42.8 °F 39.3 °F 30.2 °F 61% 30.16 in 10.0 mi WNW 5.8 mph - N/A   Clear
12:55 AM 42.8 °F - 30.2 °F 61% 30.16 in 10.0 mi Calm Calm - N/A   Clear
1:15 AM 42.8 °F 39.3 °F 30.2 °F 61% 30.17 in 10.0 mi NE 5.8 mph - N/A   Clear
1:35 AM 44.6 °F 42.2 °F 32.0 °F 61% 30.17 in 10.0 mi NNE 4.6 mph - N/A   Clear
1:55 AM 46.4 °F 44.3 °F 33.8 °F 62% 30.18 in 10.0 mi North 4.6 mph - N/A   Clear
2:15 AM 41.0 °F 37.1 °F 30.2 °F 65% 30.19 in 10.0 mi North 5.8 mph - N/A   Clear
2:35 AM 39.2 °F 35.0 °F 30.2 °F 70% 30.19 in 10.0 mi NNE 5.8 mph - N/A   Clear
2:55 AM 39.2 °F 33.6 °F 30.2 °F 70% 30.19 in 10.0 mi North 8.1 mph - N/A   Clear
3:15 AM 39.2 °F 35.0 °F 30.2 °F 70% 30.19 in 10.0 mi NNW 5.8 mph - N/A   Clear
3:35 AM 39.2 °F 35.0 °F 30.2 °F 70% 30.19 in 10.0 mi WNW 5.8 mph - N/A   Clear
3:55 AM 39.2 °F 35.0 °F 30.2 °F 70% 30.19 in 10.0 mi NNW 5.8 mph - N/A   Clear
4:15 AM 37.4 °F 34.9 °F 28.4 °F 70% 30.19 in 10.0 mi North 3.5 mph - N/A   Clear
4:35 AM 35.6 °F 30.7 °F 26.6 °F 70% 30.19 in 10.0 mi NW 5.8 mph - N/A   Clear
4:55 AM 35.6 °F 30.7 °F 28.4 °F 75% 30.20 in 10.0 mi North 5.8 mph - N/A   Clear
5:15 AM 35.6 °F 31.7 °F 30.2 °F 81% 30.20 in 10.0 mi North 4.6 mph - N/A   Clear
5:35 AM 35.6 °F 31.7 °F 28.4 °F 75% 30.21 in 10.0 mi NNW 4.6 mph - N/A   Clear
5:55 AM 35.6 °F 31.7 °F 28.4 °F 75% 30.21 in 10.0 mi NW 4.6 mph - N/A   Clear
6:15 AM 35.6 °F 31.7 °F 28.4 °F 75% 30.22 in 10.0 mi NNW 4.6 mph - N/A   Clear
6:35 AM 35.6 °F 31.7 °F 28.4 °F 75% 30.22 in 10.0 mi NW 4.6 mph - N/A   Clear
6:55 AM 35.6 °F 32.8 °F 26.6 °F 70% 30.22 in 10.0 mi NNW 3.5 mph - N/A   Clear
7:15 AM 33.8 °F 29.6 °F 28.4 °F 81% 30.23 in 10.0 mi NE 4.6 mph - N/A   Clear
7:35 AM 35.6 °F 32.8 °F 28.4 °F 75% 30.23 in 10.0 mi NNW 3.5 mph - N/A   Clear
7:55 AM 41.0 °F 39.0 °F 30.2 °F 65% 30.24 in 10.0 mi WNW 3.5 mph - N/A   Clear
8:15 AM 44.6 °F 43.1 °F 33.8 °F 66% 30.24 in 10.0 mi NNE 3.5 mph - N/A   Clear
8:35 AM 48.2 °F - 33.8 °F 58% 30.24 in 10.0 mi ENE 3.5 mph - N/A   Clear
8:55 AM 53.6 °F - 37.4 °F 54% 30.25 in 10.0 mi Calm Calm - N/A   Clear
9:15 AM 53.6 °F - 35.6 °F 51% 30.25 in 10.0 mi Calm Calm - N/A   Clear
9:35 AM 57.2 °F - 39.2 °F 51% 30.25 in 10.0 mi Calm Calm - N/A   Clear
9:55 AM 57.2 °F - 37.4 °F 48% 30.26 in 10.0 mi Calm Calm - N/A   Clear
10:15 AM 60.8 °F - 35.6 °F 39% 30.26 in 10.0 mi Calm Calm - N/A   Clear
10:35 AM 66.2 °F - 35.6 °F 32% 30.25 in 10.0 mi SSE 3.5 mph - N/A   Clear
10:55 AM 66.2 °F - 35.6 °F 32% 30.25 in 10.0 mi SE 4.6 mph - N/A   Clear
11:15 AM 66.2 °F - 35.6 °F 32% 30.25 in 10.0 mi SE 3.5 mph - N/A   Clear
11:35 AM 69.8 °F - 35.6 °F 28% 30.24 in 10.0 mi Calm Calm - N/A   Clear
11:55 AM 71.6 °F - 33.8 °F 25% 30.24 in 10.0 mi South 6.9 mph - N/A   Clear
12:15 PM 75.2 °F - 35.6 °F 24% 30.23 in 8.0 mi SSE 5.8 mph - N/A   Clear
12:35 PM 75.2 °F - 35.6 °F 24% 30.23 in 10.0 mi South 6.9 mph - N/A   Clear
12:55 PM 78.8 °F - 33.8 °F 20% 30.23 in 10.0 mi Calm Calm - N/A   Clear
1:15 PM 77.0 °F - 33.8 °F 21% 30.22 in 5.0 mi SSW 6.9 mph - N/A   Clear
1:35 PM 78.8 °F - 33.8 °F 20% 30.21 in 10.0 mi SSE 8.1 mph - N/A   Clear
1:55 PM 78.8 °F - 33.8 °F 20% 30.21 in 10.0 mi South 3.5 mph - N/A   Clear
2:15 PM 78.8 °F - 32.0 °F 18% 30.20 in 10.0 mi East 3.5 mph - N/A   Clear
2:35 PM 78.8 °F - 32.0 °F 18% 30.20 in 9.0 mi SSE 5.8 mph - N/A   Clear
2:55 PM 80.6 °F - 32.0 °F 17% 30.19 in 5.0 mi SSW 8.1 mph - N/A   Clear
3:15 PM 82.4 °F - 30.2 °F 15% 30.19 in 10.0 mi SSW 5.8 mph - N/A   Clear
3:35 PM 80.6 °F - 28.4 °F 15% 30.19 in 9.0 mi SW 3.5 mph - N/A   Clear
3:55 PM 82.4 °F - 28.4 °F 14% 30.19 in 10.0 mi West 12.7 mph - N/A   Clear
4:15 PM 80.6 °F - 24.8 °F 13% 30.19 in 10.0 mi West 11.5 mph - N/A   Clear
4:35 PM 80.6 °F - 24.8 °F 13% 30.19 in 10.0 mi West 11.5 mph - N/A   Clear
4:55 PM 78.8 °F - 24.8 °F 14% 30.19 in 10.0 mi West 12.7 mph - N/A   Clear
5:15 PM 78.8 °F - 24.8 °F 14% 30.20 in 10.0 mi West 9.2 mph - N/A   Clear
5:35 PM 75.2 °F - 23.0 °F 14% 30.20 in 10.0 mi West 6.9 mph - N/A   Clear
5:55 PM 75.2 °F - 24.8 °F 15% 30.20 in 10.0 mi West 6.9 mph - N/A   Clear
6:15 PM 71.6 °F - 26.6 °F 19% 30.21 in 10.0 mi West 5.8 mph - N/A   Clear
6:35 PM 68.0 °F - 26.6 °F 21% 30.21 in 10.0 mi West 9.2 mph - N/A   Clear
7:15 PM 60.8 °F - 28.4 °F 29% 30.22 in 10.0 mi West 10.4 mph - N/A   Clear
7:35 PM 57.2 °F - 28.4 °F 33% 30.23 in 10.0 mi WNW 8.1 mph - N/A   Clear
7:55 PM 57.2 °F - 26.6 °F 31% 30.23 in 10.0 mi NNE 5.8 mph - N/A   Clear
8:15 PM 53.6 °F - 24.8 °F 33% 30.23 in 10.0 mi NNE 4.6 mph - N/A   Clear
8:35 PM 53.6 °F - 23.0 °F 30% 30.24 in 10.0 mi North 8.1 mph - N/A   Clear
8:55 PM 53.6 °F - 24.8 °F 33% 30.25 in 10.0 mi North 6.9 mph - N/A   Clear
9:15 PM 51.8 °F - 23.0 °F 33% 30.25 in 10.0 mi North 6.9 mph - N/A   Clear
9:35 PM 50.0 °F - 24.8 °F 37% 30.26 in 10.0 mi SE 3.5 mph - N/A   Clear
9:55 PM 51.8 °F - 24.8 °F 35% 30.27 in 10.0 mi Calm Calm - N/A   Clear
10:15 PM 46.4 °F 43.5 °F 24.8 °F 43% 30.27 in 10.0 mi NNE 5.8 mph - N/A   Clear
10:35 PM 46.4 °F 42.9 °F 24.8 °F 43% 30.29 in 10.0 mi North 6.9 mph - N/A   Clear
10:55 PM 42.8 °F 40.1 °F 24.8 °F 49% 30.29 in 10.0 mi NNW 4.6 mph - N/A   Clear
11:15 PM 42.8 °F 37.5 °F 26.6 °F 53% 30.29 in 10.0 mi NW 9.2 mph - N/A   Clear
11:35 PM 42.8 °F 37.5 °F 28.4 °F 57% 30.29 in 10.0 mi WNW 9.2 mph - N/A   Clear
11:55 PM 44.6 °F 38.8 °F 28.4 °F 53% 30.29 in 10.0 mi NW 11.5 mph - N/A   Clear